[[{"header":{"parameterUnit":"m.s-1","parameterCategory":1,"la1":30.2991,"la2":30.254,"lo1":-89.0895,"lo2":-89.0444,"dy":0.0017,"dx":0.0017,"nx":28,"ny":28,"refTime":"2025-01-17T03:00:00:Z","depth":0,"parameterNumber":2,"parameterNumberName":"U-component_of_WINDS"},"data":[0,0,0,0,0,0,0,0,0,0,0,0,0,0,0,0,0,0,0,0,0,0,0,0,0,0,0,0,0,0,0,0,0,0,0,0,0,0,0,0,0,0,0,0,0,0,0,0,0,0,0,0,0,0,0,0,0,0,1.9602,1.9601,0,1.952,1.9519,1.9518,1.9408,1.9406,1.9404,1.9402,1.9316,1.9316,1.9315,0,0,0,0,0,0,0,0,0,0,0,0,0,1.9661,1.9661,1.9602,1.9601,1.96,1.952,1.9519,1.9517,1.9408,1.9406,1.9403,1.9401,1.9317,1.9316,1.9315,0,0,0,0,0,0,0,0,0,0,0,0,0,1.9613,1.9661,1.9602,1.9535,1.9529,1.952,1.9519,1.9517,1.9408,1.9406,1.9403,1.94,1.9317,1.9316,1.9315,1.9365,0,0,1.9312,1.9312,0,0,0,0,0,0,0,0,1.9616,1.9611,1.9546,1.954,1.9532,1.9471,1.9508,1.9466,1.9409,1.9454,1.9402,1.9399,1.937,1.9365,1.9355,1.9361,1.9357,1.9312,1.9312,1.9311,1.9311,0,0,0,0,0,0,0,1.9619,1.9614,1.9569,1.9545,1.9537,1.9509,1.9499,1.95,1.9428,1.945,1.9442,1.9434,1.9366,1.9356,1.9352,1.9356,1.9312,1.9312,1.9311,1.9311,1.9396,1.9399,0,0,0,0,0,0,1.9633,1.9617,1.9572,1.9567,1.9568,1.951,1.9499,1.9493,1.9428,1.9415,1.9436,1.9429,1.9359,1.9353,1.9349,1.9402,1.9311,1.9311,1.931,1.9393,1.9397,1.94,0,0,0,0,0,0,1.9635,1.963,1.9575,1.959,1.9581,1.9512,1.9507,1.9493,1.9484,1.9417,1.9404,1.944,1.9357,1.935,1.9361,1.9397,1.931,1.9309,1.939,1.9394,1.9398,1.9509,0,0,0,0,0,0,1.9637,1.9631,1.965,1.9591,1.958,1.959,1.9509,1.9494,1.9483,1.9472,1.9417,1.9406,1.9354,1.9363,1.9361,1.9394,1.9309,1.9386,1.9392,1.9397,1.9501,1.9516,1.9529,0,0,0,0,0,1.9639,1.9684,1.9651,1.9647,1.9602,1.9592,1.9586,1.9526,1.9486,1.9504,1.9461,1.9407,1.9394,1.9365,1.9361,1.9396,1.9384,1.939,1.9396,1.9495,1.9513,1.9528,0,0,0,0,0,0,1.9749,1.9675,1.9638,1.9665,1.9636,1.9574,1.9594,1.9547,1.9528,1.9519,1.9445,1.9434,1.9454,1.9426,1.9395,1.9439,1.9381,1.9387,1.9457,1.9474,1.9487,1.9493,1.9308,0,0,0,0,0,1.9776,1.9775,1.971,1.974,1.9727,1.9664,1.9657,1.9614,1.958,1.9567,1.9525,1.9494,1.9482,1.9476,1.9462,1.9497,1.9482,1.9518,1.9532,1.9543,1.9549,1.9564,1.9579,1.942,1.942,1.942,0,0,1.9832,1.9792,1.9795,1.9761,1.9733,1.9733,1.9654,1.9657,1.9656,1.9567,1.9575,1.9544,1.9504,1.9527,1.9535,1.9504,1.9589,1.9551,1.9561,1.956,1.9572,1.9587,1.9601,1.9425,1.9424,1.9423,0,0,1.9934,1.9904,1.9926,1.9899,1.9858,1.9815,1.9821,1.9766,1.9741,1.9748,1.9682,1.9679,1.9661,1.9635,1.9619,1.9711,1.9661,1.9709,1.9779,1.9795,1.9807,1.9818,1.985,1.9863,1.9715,1.9715,1.9715,0,2.0009,2.0007,1.9942,1.9949,1.9936,1.9856,1.9877,1.9854,1.9811,1.9803,1.9769,1.9744,1.9712,1.9727,1.975,1.974,1.9743,1.9715,1.9811,1.9821,1.983,1.986,1.9872,1.9721,1.972,1.972,1.9719,0,2.01,2.01,2.0122,2.0082,2.0071,2.0085,2.0022,2.0019,1.9976,1.9937,1.9944,1.9903,1.9878,1.9879,1.9837,1.9888,1.987,1.9825,1.9764,1.9852,1.9879,1.989,1.973,1.9728,1.9726,1.9724,0,0,2.0269,2.0194,2.0203,2.0184,2.0132,2.013,2.014,2.0117,2.0115,2.0087,2.0093,2.0079,2.0037,2.0019,1.9974,1.9988,2.0062,1.994,1.9938,1.9964,2.0115,2.0149,2.0164,2.0029,2.003,2.0032,2.0118,0,2.0361,2.0375,2.0317,2.0345,2.0343,2.0267,2.0275,2.0245,2.0208,2.02,2.0159,2.015,2.0095,2.0084,2.0094,2.0051,2.0092,2.0044,2.0032,2.0033,2.0045,2.0177,2.0214,2.0297,2.0128,2.013,2.0131,0,2.047,2.0449,2.0478,2.0424,2.0421,2.043,2.0403,2.0397,2.036,2.0332,2.0313,2.0261,2.0265,2.0208,2.0213,2.0182,2.0174,2.0152,2.0153,2.015,2.0087,2.0177,2.0322,2.0335,2.0147,2.0146,2.0144,0,2.059,2.0569,2.0582,2.0568,2.0507,2.0515,2.0489,2.0449,2.0439,2.0415,2.0407,2.0385,2.0373,2.0356,2.0298,2.0262,2.0309,2.0248,2.0286,2.0287,2.0299,2.0299,2.0445,2.0295,2.0294,2.0294,2.0294,0,2.0699,2.0719,2.0635,2.0644,2.0664,2.0597,2.0618,2.0585,2.055,2.055,2.0483,2.0484,2.0408,2.0401,2.0355,2.0366,2.0361,2.0338,2.0325,2.0344,2.0347,2.0337,2.0329,2.0297,2.0297,2.0296,2.0296,0,2.0836,2.0781,2.0791,2.0732,2.0717,2.0735,2.0683,2.0688,2.0647,2.0648,2.0644,2.058,2.0567,2.0508,2.0482,2.0451,2.0477,2.0453,2.049,2.0482,2.0523,2.052,2.0667,2.0682,2.0524,2.0525,2.0527,0,2.0909,2.0922,2.0865,2.086,2.0838,2.0832,2.0821,2.0755,2.0746,2.0705,2.0714,2.0697,2.0679,2.0662,2.0612,2.0591,2.0566,2.0619,2.0562,2.058,2.0566,2.0565,2.0566,2.0631,2.0633,2.0635,2.0636,0,2.1043,2.1015,2.1002,2.098,2.0969,2.0948,2.0923,2.0923,2.085,2.0843,2.083,2.0817,2.079,2.0772,2.0743,2.0715,2.0663,2.0655,2.0662,2.068,2.0701,2.069,2.0522,2.0651,2.065,2.0649,2.0648,2.0647,2.115,2.1158,2.1119,2.1107,2.1081,2.1059,2.1061,2.102,2.1008,2.0982,2.0943,2.0935,2.0896,2.0852,2.0828,2.082,2.079,2.0802,2.0804,2.0808,2.0817,2.0703,2.0814,2.0813,2.0813,2.0813,2.0812,0,2.128,2.1251,2.1241,2.1208,2.1198,2.1151,2.1121,2.1116,2.111,2.1078,2.1062,2.1047,2.1029,2.0978,2.0956,2.0959,2.0934,2.0955,2.0954,2.0948,2.0845,2.084,2.0975,2.0975,2.0975,2.0975,2.0975,2.0975,2.1347,2.1359,2.1326,2.1324,2.1294,2.1287,2.1273,2.1252,2.1227,2.1213,2.1198,2.1165,2.1126,2.1099,2.1081,2.1066,2.1061,2.1089,2.1067,2.0971,2.0955,2.094,2.0936,2.1089,2.1089,2.117,2.1171,2.1172]},{"header":{"parameterUnit":"m.s-1","parameterCategory":1,"la1":30.2991,"la2":30.254,"lo1":-89.0895,"lo2":-89.0444,"dy":0.0017,"dx":0.0017,"nx":28,"ny":28,"refTime":"2025-01-17T03:00:00:Z","depth":0,"parameterNumber":3,"parameterNumberName":"V-component_of_WINDS"},"data":[0,0,0,0,0,0,0,0,0,0,0,0,0,0,0,0,0,0,0,0,0,0,0,0,0,0,0,0,0,0,0,0,0,0,0,0,0,0,0,0,0,0,0,0,0,0,0,0,0,0,0,0,0,0,0,0,0,0,5.5874,5.5877,0,5.6131,5.6134,5.6137,5.6144,5.6141,5.6138,5.6135,5.6399,5.6408,5.6418,0,0,0,0,0,0,0,0,0,0,0,0,0,5.5389,5.5398,5.5873,5.5877,5.588,5.6131,5.6134,5.6138,5.6145,5.6141,5.6137,5.6133,5.6395,5.6407,5.6419,0,0,0,0,0,0,0,0,0,0,0,0,0,5.5618,5.5401,5.5873,5.5914,5.592,5.613,5.6134,5.6139,5.6145,5.6141,5.6136,5.6131,5.6391,5.6406,5.6421,5.6608,0,0,5.6466,5.6473,0,0,0,0,0,0,0,0,5.5605,5.5636,5.5904,5.5911,5.5918,5.6101,5.606,5.6296,5.6147,5.606,5.6135,5.6129,5.6303,5.6325,5.6384,5.662,5.6631,5.6468,5.6477,5.6483,5.6487,0,0,0,0,0,0,0,5.5589,5.5625,5.5975,5.5908,5.5917,5.5919,5.5947,5.6105,5.6205,5.6067,5.6068,5.6098,5.6306,5.6369,5.639,5.6635,5.6467,5.6481,5.649,5.6496,5.7042,5.7047,0,0,0,0,0,0,5.5565,5.5612,5.5967,5.5983,5.5747,5.5932,5.5963,5.6047,5.6203,5.6222,5.6102,5.6098,5.6346,5.6373,5.6399,5.6632,5.6483,5.6497,5.6506,5.7037,5.7043,5.7049,0,0,0,0,0,0,5.5555,5.5597,5.5957,5.5798,5.5844,5.5945,5.604,5.6055,5.6118,5.623,5.6248,5.6149,5.6344,5.6378,5.6557,5.6641,5.6504,5.6517,5.703,5.7039,5.7046,5.7097,0,0,0,0,0,0,5.5541,5.5593,5.5665,5.58,5.5852,5.611,5.6045,5.6063,5.6144,5.614,5.6278,5.6296,5.6342,5.6535,5.6572,5.666,5.6529,5.7023,5.7034,5.7044,5.7088,5.7106,5.7121,0,0,0,0,0,5.5524,5.5668,5.5668,5.5711,5.5944,5.6114,5.6145,5.6195,5.615,5.6224,5.6296,5.6292,5.6625,5.6553,5.6595,5.6688,5.7018,5.7031,5.7043,5.7081,5.7103,5.7121,0,0,0,0,0,0,5.554,5.5686,5.5688,5.5881,5.5985,5.6115,5.621,5.6216,5.6335,5.6327,5.6384,5.6415,5.6594,5.6658,5.6575,5.6879,5.6817,5.6838,5.6831,5.6853,5.6869,5.6851,5.6542,0,0,0,0,0,5.5566,5.5692,5.5813,5.5971,5.6023,5.6107,5.6183,5.6213,5.6324,5.6368,5.6453,5.6561,5.6691,5.6774,5.6899,5.7097,5.7129,5.7182,5.7198,5.7211,5.723,5.7343,5.7369,5.709,5.709,5.709,0,0,5.5621,5.5717,5.5792,5.5977,5.6061,5.6192,5.6145,5.6283,5.6381,5.6389,5.6564,5.663,5.6754,5.6944,5.7032,5.7004,5.7314,5.7227,5.7237,5.7249,5.7359,5.7385,5.7408,5.7099,5.7097,5.7096,0,0,5.5789,5.5872,5.6015,5.6101,5.623,5.6286,5.632,5.645,5.6495,5.6671,5.6681,5.6797,5.7018,5.7107,5.7181,5.7385,5.7387,5.7424,5.7511,5.762,5.7643,5.7662,5.7739,5.7765,5.7442,5.7442,5.7442,0,5.5841,5.6038,5.6087,5.6229,5.6311,5.6324,5.647,5.6551,5.6714,5.677,5.6736,5.7016,5.7099,5.7312,5.7362,5.742,5.7463,5.741,5.7635,5.7656,5.7675,5.7748,5.7777,5.7446,5.7445,5.7445,5.7444,0,5.6098,5.6234,5.6334,5.6493,5.6586,5.6728,5.68,5.6888,5.691,5.6969,5.715,5.7251,5.7399,5.7451,5.7472,5.7668,5.7647,5.7623,5.7562,5.7705,5.7775,5.7803,5.7451,5.745,5.7449,5.7448,0,0,5.6284,5.647,5.6506,5.658,5.6724,5.6831,5.6974,5.7119,5.7195,5.7306,5.7431,5.7618,5.7598,5.7682,5.7714,5.7809,5.7969,5.7775,5.7778,5.781,5.8194,5.8214,5.8246,5.7969,5.7975,5.7979,5.8185,0,5.6471,5.6728,5.6777,5.7001,5.7129,5.7144,5.727,5.7372,5.7432,5.7549,5.7614,5.7748,5.7709,5.7761,5.7856,5.7929,5.8047,5.7915,5.8088,5.8093,5.806,5.8282,5.8303,5.8492,5.8213,5.8217,5.822,0,5.6723,5.6843,5.708,5.721,5.7265,5.7377,5.7516,5.7627,5.7745,5.7781,5.7876,5.7898,5.805,5.7979,5.819,5.8099,5.8172,5.8219,5.8227,5.8248,5.8168,5.8312,5.8553,5.8583,5.8263,5.826,5.8257,0,5.684,5.7061,5.7232,5.7294,5.7448,5.7528,5.7596,5.7708,5.7793,5.7913,5.7969,5.8105,5.818,5.8286,5.8344,5.8287,5.8552,5.8485,5.8589,5.8588,5.8647,5.8644,5.8907,5.8688,5.8688,5.8687,5.8687,0,5.7046,5.7191,5.7287,5.7393,5.7557,5.7612,5.7773,5.784,5.794,5.806,5.808,5.8192,5.8261,5.8383,5.8429,5.8599,5.8632,5.8667,5.8679,5.8668,5.8664,5.872,5.871,5.8695,5.8693,5.8692,5.869,0,5.7206,5.7276,5.7464,5.7595,5.7632,5.7747,5.786,5.7964,5.8023,5.8175,5.8213,5.8307,5.8452,5.852,5.8699,5.8731,5.8925,5.8925,5.8886,5.8891,5.8993,5.8984,5.9304,5.9351,5.9097,5.9099,5.9101,0,5.7334,5.7447,5.7591,5.7673,5.7743,5.7874,5.7962,5.8021,5.8111,5.8254,5.8341,5.8487,5.8608,5.884,5.8924,5.9062,5.9068,5.9171,5.9089,5.9076,5.9075,5.9069,5.9082,5.9187,5.9189,5.9191,5.9193,0,5.7556,5.7585,5.771,5.7849,5.7953,5.8064,5.8174,5.824,5.8316,5.8417,5.8566,5.866,5.8844,5.899,5.9134,5.9204,5.9214,5.9217,5.925,5.9242,5.9216,5.9236,5.8931,5.9211,5.9209,5.9208,5.9207,5.9206,5.7707,5.7809,5.7927,5.8067,5.8156,5.8258,5.8363,5.8436,5.8562,5.8718,5.8744,5.8904,5.902,5.9215,5.929,5.9417,5.9393,5.9438,5.9451,5.9462,5.947,5.9193,5.9442,5.9442,5.9442,5.9441,5.9441,0,5.7933,5.801,5.8138,5.8292,5.8402,5.8399,5.8521,5.8614,5.8755,5.8862,5.8981,5.9154,5.9296,5.9392,5.9536,5.9619,5.9627,5.9655,5.9652,5.9669,5.9481,5.9441,5.9647,5.9647,5.9647,5.9647,5.9647,5.9647,5.8064,5.8238,5.8282,5.8501,5.8577,5.8735,5.8805,5.89,5.8987,5.918,5.9298,5.9359,5.9463,5.9616,5.9746,5.9771,5.9825,5.9855,5.9879,5.9703,5.9681,5.9661,5.9624,5.9865,5.9865,6.0057,6.0059,6.006]}]]